Home   Weather   Trujillo   Past weeks

Flag for Peru Past Weather in Trujillo, La Libertad, Peru — Yesterday and Last 2 Weeks

Now
75 °F

Partly sunny.


Feels Like: 75 °F
Forecast: 71 / 83 °F
Wind: 2 mph from North

Location: Trujillo Airport

Current Time: Jan 22, 2017 at 9:16:23 am

Latest Report: Jan 22, 2017 at 8:00 am


Visibility: 6 mi

Pressure: 29.98 "Hg

Humidity: 83%

Dew Point: 70 °F

Location of TrujilloLocation

Past Weather in Trujillo — Graph

°F

Trujillo Temperature Yesterday

Maximum temperature yesterday: 79 °F (at 2:00 pm)
Minimum temperature yesterday: 73 °F (at 12:00 am)
Average temperature yesterday: 75 °F

High & Low Weather Summary for the Past Weeks

 TemperatureHumidityPressure
High79 °F (Jan 10, 4:00 pm)100% (Jan 11, 5:00 am)29.98 "Hg (Jan 11, 5:00 am)
Low66 °F (Jan 11, 6:30 am)65% (Jan 16, 2:00 pm)29.77 "Hg (Jan 11, 4:00 pm)
Average73 °F86%29.88 "Hg
* Reported Jan 7 8:00 am — Jan 22 8:00 am, Trujillo, Weather by CustomWeather, © 2017

Note: Actual official high and low records may vary slightly from our data, if they occured in-between our weather recording intervals... More about our weather records

Advertising

Trujillo Weather History for the Previous 24 Hours

Scroll right to see more
 ConditionsComfort  
Time TempWeatherWind HumidityBarometerVisibility
8:00 am
Sun, Jan 22
75 °FPartly sunny.2 mph83%29.98 "Hg6 mi
7:00 am72 °FMore clouds than sun.5 mph94%29.98 "Hg5 mi
6:00 am73 °FPassing clouds.No wind89%29.95 "Hg5 mi
5:00 am73 °FMild.N/A89%29.92 "HgN/A
4:00 am73 °FMostly cloudy.2 mph89%29.92 "HgN/A
3:00 am73 °FMostly cloudy.5 mph89%29.92 "HgN/A
2:00 am73 °FOvercast.3 mph83%29.95 "HgN/A
1:00 am75 °FPassing clouds.7 mph78%29.95 "HgN/A
12:00 am75 °FPassing clouds.8 mph83%29.98 "HgN/A
11:00 pm
Sat, Jan 21
75 °FPassing clouds.8 mph83%29.98 "HgN/A
10:00 pm75 °FPassing clouds.7 mph89%29.98 "HgN/A
9:00 pm75 °FPartly cloudy.6 mph94%29.95 "HgN/A
8:00 pm75 °FMostly cloudy.6 mph94%29.92 "HgN/A
7:00 pm75 °FMostly cloudy.5 mph94%29.89 "HgN/A
6:00 pm75 °FMore clouds than sun.5 mph89%29.86 "HgN/A
5:00 pm77 °FMore clouds than sun.6 mph83%29.86 "HgN/A
4:00 pm77 °FMore clouds than sun.7 mph89%29.86 "HgN/A
3:00 pm79 °FMore clouds than sun.7 mph79%29.89 "HgN/A
2:00 pm79 °FMore clouds than sun.6 mph79%29.92 "HgN/A
1:00 pm77 °FPartly sunny.6 mph83%29.92 "Hg6 mi
12:00 pm75 °FPartly sunny.7 mph89%29.95 "Hg6 mi
11:00 am75 °FPartly sunny.7 mph89%29.98 "Hg6 mi
10:00 am75 °FPartly sunny.7 mph89%29.98 "Hg6 mi
9:00 am75 °FPartly sunny.5 mph83%29.98 "Hg5 mi
Weather by CustomWeather, © 2017

See weather overviewHow to use our weather pages